STARLINK-2523, 48306

Orbit data source: Space-Track

STARLINK-2523, 48306 is a payload satellite owned by SpaceX/Seattle (US) in LEO that was launched on Thu, 29 Apr 2021 UTC via an FALCON 9 launch vehicle from the Air Force Eastern Test Range (AFETR). Payload-class satellites include a variety of spacecraft equipped with specific instruments for various scientific and technological missions. These include communications satellites like Starlink; space stations such as the ISS; scientific satellites like the Hubble; Earth observation satellites from companies like Planet Labs, Umbra, and HawkEye 360; GPS; miniature CubeSats for education and research; and military/defense satellites.

Loading next visibility...
Identifier
48306, 2021-036AG
Orbit
LEO
Country
Flag of USUS
Related business
Manufacturer
SpaceX/Seattle
Mission
Operational Commercial Communications
Bus & Motor
STARLINK, Unknown motor
Mass
260 kg wet, ~248 kg dry
Launch date (UTC)
2021-04-29 (4 years ago)
Launch vehicle
FALCON 9
Launch site
Air Force Eastern Test Range (AFETR)
Object type
Payload
Rocket body
Debris
Shape & HBR
Box + 1 Pan, 10.1 m
Radar Cross Section
13.562 m², Large (>1 m²)

Expand to show TLE details & history
Last TLE update: 16 hours ago

TLE from 16 hours ago
0 STARLINK-2523
1 48306U 21036AG  25292.58828143  .00003546  00000-0  25665-3 0  9997
2 48306  53.0552   5.0466 0001403  99.2436 260.8712 15.06424320246909
Epoch: 2025-10-19T14:07Z
TLE epoch observation values (Epoch: 2025-10-19T14:07:07.515Z)
Latitude
-0°
Longitude
124.9625°
Altitude
548.171 km
Speed
7.589 km/s
True Right ascension
00h 20m 11s
True Declination
0° 00' 00"
Sunlit
Object was in full shadow at epoch
Visualization orbit readout
Latitude
Unknown
Longitude
Unknown
Altitude
Unknown
Speed
Unknown
Apparent Right ascension
Unknown
Apparent Declination
Unknown
Sunlit
N/A
Visualization observer readout
Local Sidereal Time
01:02:17
Azimuth
Unknown
Elevation
Unknown
Doppler factor
Unknown
Orbital elements
Apogee altitude
548.379 km
Perigee altitude
546.436 km
Semi-major axis
6,925.545 km
Eccentricity
0.00014
Inclination
53.0552°
RAAN
5.0466°
Arg. of periapsis
99.2436°
True anomaly
260.85533°
Mean anomaly
260.8712°
Eccentric anomaly
260.86326°
Mean motion
3.76584 °/min
Orbital period
95.6 mins
BSTAR
0.00025665
Loading maneuver chart data...
Computing Atmospheric mass density...

Documentation

Showing up to 5 results
|